When you browse on this site, cookies collect data to enhance your experience and personalize the content and advertising you see.
Visit our Privacy Policy to learn more. By continuing to use the site, you agree to this use of cookies and data.
  • en France
  • Liste des pays
  • À 7 jours
  • Température de l'eau
  • Carte satellitaire
  • Carte météo
  • Widgets météo
  • user-avatar
    Se connecter

    Météo par heure à Naftalan

    Ce jour, 26 Juin, Mercredi

    Heure Température Précipitation Vent Pression Humidité
    00:00 +28°C° 0 mm 1 m/s 760 mmHg 69%
    01:00 +27°C° 0 mm 1 m/s 760 mmHg 70%
    02:00 +27°C° 0 mm 1 m/s 760 mmHg 70%
    03:00 +27°C° 0 mm 1 m/s 760 mmHg 72%
    04:00 +28°C° 0 mm 1 m/s 760 mmHg 68%
    05:00 +29°C° 0 mm 2 m/s 761 mmHg 63%
    06:00 +29°C° 0 mm 2 m/s 761 mmHg 59%
    07:00 +31°C° 0 mm 3 m/s 761 mmHg 53%
    08:00 +34°C° 0 mm 3 m/s 761 mmHg 47%
    09:00 +36°C° 0 mm 4 m/s 761 mmHg 41%
    10:00 +36°C° 0 mm 5 m/s 761 mmHg 39%
    11:00 +37°C° 0 mm 5 m/s 761 mmHg 38%
    12:00 +39°C° 0 mm 6 m/s 761 mmHg 36%
    13:00 +38°C° 0 mm 7 m/s 761 mmHg 37%
    14:00 +38°C° 0 mm 7 m/s 760 mmHg 39%
    15:00 +37°C° 0 mm 8 m/s 760 mmHg 40%
    16:00 +35°C° 0 mm 7 m/s 760 mmHg 43%
    17:00 +34°C° 0 mm 7 m/s 760 mmHg 46%
    18:00 +33°C° 0 mm 7 m/s 761 mmHg 49%
    19:00 +32°C° 0 mm 5 m/s 761 mmHg 55%
    20:00 +30°C° 0 mm 4 m/s 761 mmHg 60%
    21:00 +29°C° 0 mm 2 m/s 761 mmHg 66%
    22:00 +29°C° 0 mm 2 m/s 761 mmHg 67%
    23:00 +28°C° 0 mm 2 m/s 761 mmHg 67%

    Demain, 27 Juin, Jeudi

    Heure Température Précipitation Vent Pression Humidité
    00:00 +28°C° 0 mm 2 m/s 761 mmHg 67%
    01:00 +28°C° 0 mm 2 m/s 761 mmHg 69%
    02:00 +27°C° 0 mm 2 m/s 761 mmHg 70%
    03:00 +27°C° 0 mm 2 m/s 761 mmHg 72%
    04:00 +28°C° 0 mm 2 m/s 761 mmHg 68%
    05:00 +28°C° 0 mm 2 m/s 761 mmHg 64%
    06:00 +29°C° 0 mm 3 m/s 761 mmHg 60%
    07:00 +30°C° 0 mm 4 m/s 761 mmHg 54%
    08:00 +32°C° 0 mm 4 m/s 761 mmHg 47%
    09:00 +34°C° 0 mm 5 m/s 760 mmHg 41%
    10:00 +34°C° 0 mm 6 m/s 760 mmHg 40%
    11:00 +35°C° 0 mm 6 m/s 760 mmHg 39%
    12:00 +35°C° 0 mm 6 m/s 759 mmHg 39%
    13:00 +35°C° 0 mm 6 m/s 759 mmHg 41%
    14:00 +35°C° 0 mm 6 m/s 759 mmHg 43%
    15:00 +35°C° 0 mm 6 m/s 758 mmHg 45%
    16:00 +34°C° 0 mm 6 m/s 758 mmHg 48%
    17:00 +33°C° 0 mm 5 m/s 758 mmHg 51%
    18:00 +32°C° 0 mm 4 m/s 758 mmHg 54%
    19:00 +30°C° 0 mm 3 m/s 758 mmHg 59%
    20:00 +29°C° 0 mm 2 m/s 758 mmHg 64%
    21:00 +28°C° 0 mm 1 m/s 758 mmHg 69%
    22:00 +28°C° 0 mm 1 m/s 758 mmHg 69%
    23:00 +28°C° 0 mm 1 m/s 757 mmHg 69%

    Après-demain, 28 Juin, Vendredi

    Heure Température Précipitation Vent Pression Humidité
    00:00 +27°C° 0 mm 1 m/s 757 mmHg 69%
    01:00 +27°C° 0 mm 2 m/s 757 mmHg 68%
    02:00 +27°C° 0 mm 3 m/s 757 mmHg 67%
    03:00 +27°C° 0 mm 3 m/s 756 mmHg 66%
    04:00 +28°C° 0 mm 2 m/s 756 mmHg 64%
    05:00 +28°C° 0 mm 2 m/s 756 mmHg 63%
    06:00 +28°C° 0 mm 1 m/s 756 mmHg 62%
    07:00 +30°C° 0 mm 1 m/s 755 mmHg 55%
    08:00 +31°C° 0 mm 1 m/s 755 mmHg 48%
    09:00 +32°C° 0 mm 2 m/s 755 mmHg 42%
    10:00 +34°C° 0.1 mm 2 m/s 754 mmHg 40%
    11:00 +35°C° 0.1 mm 3 m/s 754 mmHg 37%
    12:00 +35°C° 0.1 mm 4 m/s 753 mmHg 35%
    13:00 +35°C° 0 mm 4 m/s 753 mmHg 35%
    14:00 +35°C° 0 mm 4 m/s 752 mmHg 35%
    15:00 +35°C° 0 mm 4 m/s 752 mmHg 36%
    16:00 +34°C° 0 mm 4 m/s 752 mmHg 39%
    17:00 +33°C° 0 mm 4 m/s 751 mmHg 42%
    18:00 +32°C° 0 mm 4 m/s 751 mmHg 45%
    19:00 +30°C° 0.1 mm 3 m/s 751 mmHg 51%
    20:00 +29°C° 0.1 mm 2 m/s 752 mmHg 57%
    21:00 +28°C° 0.1 mm 1 m/s 752 mmHg 64%
    22:00 +28°C° 0.1 mm 1 m/s 752 mmHg 63%
    23:00 +28°C° 0.1 mm 1 m/s 752 mmHg 62%

    29 Juin, Samedi

    Heure Température Précipitation Vent Pression Humidité
    00:00 +28°C° 0.1 mm 1 m/s 751 mmHg 61%
    01:00 +28°C° 0 mm 2 m/s 751 mmHg 60%
    02:00 +27°C° 0 mm 2 m/s 751 mmHg 60%
    03:00 +27°C° 0 mm 2 m/s 751 mmHg 60%
    04:00 +28°C° 0 mm 2 m/s 751 mmHg 56%
    05:00 +28°C° 0 mm 2 m/s 751 mmHg 53%
    06:00 +29°C° 0 mm 2 m/s 752 mmHg 49%
    07:00 +30°C° 0 mm 3 m/s 752 mmHg 48%
    08:00 +32°C° 0 mm 5 m/s 752 mmHg 46%
    09:00 +34°C° 0 mm 7 m/s 752 mmHg 45%
    10:00 +34°C° 0 mm 7 m/s 752 mmHg 45%
    11:00 +35°C° 0 mm 8 m/s 752 mmHg 45%
    12:00 +35°C° 0 mm 9 m/s 751 mmHg 46%
    13:00 +35°C° 0 mm 8 m/s 751 mmHg 47%
    14:00 +34°C° 0 mm 8 m/s 750 mmHg 48%
    15:00 +34°C° 0 mm 8 m/s 750 mmHg 49%
    16:00 +33°C° 0 mm 7 m/s 750 mmHg 51%
    17:00 +32°C° 0 mm 6 m/s 750 mmHg 54%
    18:00 +30°C° 0 mm 5 m/s 750 mmHg 57%
    19:00 +30°C° 0 mm 4 m/s 750 mmHg 60%
    20:00 +29°C° 0 mm 4 m/s 751 mmHg 64%
    21:00 +28°C° 0 mm 3 m/s 752 mmHg 68%
    22:00 +28°C° 0 mm 4 m/s 752 mmHg 66%
    23:00 +28°C° 0 mm 4 m/s 752 mmHg 64%

    30 Juin, Dimanche

    Heure Température Précipitation Vent Pression Humidité
    00:00 +28°C° 0 mm 5 m/s 752 mmHg 62%
    01:00 +27°C° 0 mm 6 m/s 753 mmHg 62%
    02:00 +27°C° 0 mm 6 m/s 753 mmHg 63%
    03:00 +26°C° 0 mm 7 m/s 754 mmHg 64%
    04:00 +26°C° 0 mm 6 m/s 754 mmHg 63%
    05:00 +26°C° 0 mm 5 m/s 755 mmHg 63%
    06:00 +26°C° 0 mm 5 m/s 755 mmHg 63%
    07:00 +27°C° 0 mm 5 m/s 756 mmHg 60%
    08:00 +28°C° 0 mm 5 m/s 756 mmHg 58%
    09:00 +29°C° 0 mm 5 m/s 757 mmHg 55%
    10:00 +28°C° 0 mm 7 m/s 757 mmHg 57%
    11:00 +28°C° 0 mm 8 m/s 757 mmHg 58%
    12:00 +28°C° 0 mm 9 m/s 757 mmHg 59%
    13:00 +28°C° 0 mm 9 m/s 757 mmHg 60%
    14:00 +28°C° 0 mm 9 m/s 756 mmHg 60%
    15:00 +28°C° 0 mm 9 m/s 756 mmHg 61%
    16:00 +27°C° 0 mm 9 m/s 756 mmHg 63%
    17:00 +27°C° 0 mm 9 m/s 756 mmHg 66%
    18:00 +27°C° 0 mm 9 m/s 756 mmHg 68%
    19:00 +27°C° 0 mm 8 m/s 756 mmHg 69%
    20:00 +26°C° 0 mm 8 m/s 756 mmHg 70%
    21:00 +26°C° 0 mm 7 m/s 757 mmHg 71%
    22:00 +26°C° 0 mm 7 m/s 757 mmHg 71%
    23:00 +26°C° 0 mm 7 m/s 756 mmHg 70%

    1 Juillet, Lundi

    Heure Température Précipitation Vent Pression Humidité
    00:00 +26°C° 0 mm 7 m/s 756 mmHg 70%
    01:00 +26°C° 0.1 mm 8 m/s 756 mmHg 70%
    02:00 +24°C° 0.1 mm 8 m/s 757 mmHg 70%
    03:00 +24°C° 0.1 mm 9 m/s 757 mmHg 70%
    04:00 +24°C° 0.1 mm 8 m/s 757 mmHg 70%
    05:00 +23°C° 0.1 mm 7 m/s 757 mmHg 70%
    06:00 +23°C° 0.1 mm 6 m/s 758 mmHg 69%
    07:00 +23°C° 0.3 mm 6 m/s 758 mmHg 70%
    08:00 +22°C° 0.3 mm 7 m/s 758 mmHg 71%
    09:00 +22°C° 0.3 mm 7 m/s 758 mmHg 71%
    10:00 +23°C° 0.2 mm 7 m/s 758 mmHg 69%
    11:00 +23°C° 0.2 mm 7 m/s 758 mmHg 67%
    12:00 +24°C° 0.2 mm 7 m/s 758 mmHg 65%
    13:00 +23°C° 0.1 mm 7 m/s 758 mmHg 65%
    14:00 +23°C° 0.1 mm 7 m/s 758 mmHg 66%
    15:00 +23°C° 0.1 mm 7 m/s 758 mmHg 66%
    16:00 +22°C° 0.1 mm 6 m/s 758 mmHg 67%
    17:00 +22°C° 0.1 mm 6 m/s 758 mmHg 67%
    18:00 +22°C° 0.1 mm 6 m/s 759 mmHg 67%
    19:00 +22°C° 0.1 mm 6 m/s 759 mmHg 67%
    20:00 +21°C° 0.1 mm 6 m/s 760 mmHg 68%
    21:00 +21°C° 0.1 mm 6 m/s 760 mmHg 68%
    22:00 +20°C° 0.4 mm 6 m/s 760 mmHg 71%
    23:00 +20°C° 0.4 mm 5 m/s 760 mmHg 74%
    Voir plus